KSDF Airport Diagram

We have created a template for each of the higher traffic airports in the vZID airspace. They include KCMH, KCRW, KCVG, KDAY, KIND, KLEX and KSDF. You wil find usefull information including the airport diagram, weather, and specific airport procedures.

KSDF Weather

[Source: ADDS]
METAR
KSDF 251256Z 00000KT 7SM FEW180 FEW250 22/18 A3005 RMK AO2 SLP172 T02170183 =
TAF
KSDF 251131Z 2512/2618 VRB03KT P6SM FEW250 FM251700 08004KT P6SM FEW250 FM260100 00000KT P6SM FEW250 =

SDF Operations

Calm Wind Configuration is runways 17L and 17R

Runway 17L typically departs north and east

Runway 17R typicall departs south and west

 

JSN Epic template designed by JoomlaShine.com